CW6601 Weather Reports


Display with metric or nautical units.
time (UTC)temp
F
wind
direction
speed
MPH
gust
MPH
rain 1hr
in
rain 24hr
in
rain mn
in
humidity
%
barometer
mb
20260506073028 48 274 0.0 0.0 0.00 0.10 0.00 96 1021.2
20260506073010 48 274 0.0 0.0 0.00 0.10 0.00 96 1019.8
20260506071527 48 274 0.0 0.0 0.00 0.10 0.00 96 1021.0
20260506071509 48 274 0.0 0.0 0.00 0.10 0.00 96 1019.6
20260506061524 48 274 0.0 0.0 0.00 0.11 0.10 96 1019.3
20260506061521 48 274 0.0 0.0 0.00 0.11 0.10 96 1020.7
20260506044521 48 274 0.0 0.0 0.00 0.14 0.10 96 1018.6
20260506044515 48 274 0.0 0.0 0.00 0.15 0.10 96 1020.2
20260506043016 48 274 0.0 0.0 0.00 0.14 0.10 96 1018.5
20260506043014 48 274 0.0 0.0 0.00 0.15 0.10 96 1020.1
20260506041526 48 274 0.0 0.0 0.00 0.15 0.10 96 1018.3
20260506041512 48 274 0.0 0.0 0.00 0.15 0.10 96 1019.9
20260506040027 48 274 0.0 0.0 0.00 0.15 0.10 96 1018.2
20260506040011 48 274 0.0 0.0 0.00 0.15 0.10 96 1019.7
20260506034525 48 274 0.0 0.0 0.00 0.16 0.10 96 1018.0
20260506034511 48 274 0.0 0.0 0.00 0.22 0.10 96 1019.5
20260506033024 48 274 0.0 0.0 0.00 0.19 0.10 96 1017.8
20260506033010 48 274 0.0 0.0 0.00 0.22 0.10 96 1019.4
20260506031523 48 274 0.0 0.0 0.00 0.21 0.10 96 1017.4
20260506031518 48 274 0.0 0.0 0.00 0.22 0.10 96 1019.1
20260506030019 48 274 0.0 0.0 0.00 0.22 0.10 96 1017.2
20260506030007 48 274 0.0 0.0 0.00 0.22 0.10 96 1019.0
20260506024532 48 274 0.0 0.0 0.00 0.24 0.10 96 1017.3
20260506024507 48 274 0.0 0.0 0.00 0.28 0.10 96 1019.0
20260506023026 48 274 0.0 0.0 0.00 0.26 0.10 96 1017.1
20260506023005 48 274 0.0 0.0 0.00 0.28 0.10 96 1018.7
20260506021507 48 274 0.0 0.0 0.00 0.29 0.10 96 1017.1
20260506021505 48 274 0.0 0.0 0.00 0.28 0.10 96 1018.8
20260506020007 48 274 0.0 0.0 0.00 0.29 0.10 96 1017.0
20260506020004 48 274 0.0 0.0 0.00 0.28 0.10 96 1018.6
20260506014506 48 274 0.0 0.0 0.00 0.31 0.10 96 1017.1
20260506014504 48 274 0.0 0.0 0.00 0.31 0.10 96 1018.6
20260506013004 48 274 0.0 0.0 0.00 0.31 0.10 96 1017.1
20260506011509 48 274 0.0 0.0 0.00 0.31 0.10 96 1018.6
20260506011504 48 274 0.0 0.0 0.00 0.31 0.10 96 1017.1
20260506010120 48 274 0.0 0.0 0.00 0.31 0.10 96 1018.4
20260506010012 48 274 0.0 0.0 0.00 0.31 0.10 96 1016.8
20260506004558 48 274 0.0 0.0 0.00 0.32 0.10 96 1018.3
20260506004510 48 274 0.0 0.0 0.00 0.31 0.10 96 1016.7
20260506003119 48 274 0.0 0.0 0.00 0.32 0.10 96 1018.2
20260506003005 48 274 0.0 0.0 0.00 0.31 0.10 96 1016.6
20260506001604 47 274 0.0 0.0 0.00 0.32 0.10 96 1018.2
20260506001504 47 274 0.0 0.0 0.00 0.31 0.10 96 1016.7
20260506000056 47 274 0.0 0.0 0.00 0.32 0.10 96 1018.1
20260506000004 47 274 0.0 0.0 0.00 0.32 0.10 96 1016.5
20260505234555 47 274 0.0 0.0 0.00 0.40 0.10 96 1018.1
20260505234532 47 274 0.0 0.0 0.00 0.33 0.10 96 1016.5
20260505233105 47 274 0.0 0.0 0.00 0.40 0.10 96 1018.1
20260505233017 47 274 0.0 0.0 0.00 0.36 0.10 96 1016.5
20260505231554 47 274 0.0 0.0 0.00 0.40 0.10 96 1018.1
20260505231514 47 274 0.0 0.0 0.00 0.38 0.10 96 1016.5
20260505230057 47 274 0.0 0.0 0.00 0.40 0.10 96 1018.0
20260505230012 47 274 0.0 0.0 0.00 0.40 0.10 96 1016.4
20260505224553 47 274 0.0 0.0 0.00 0.44 0.10 96 1017.9
20260505224504 47 274 0.0 0.0 0.00 0.41 0.10 96 1016.3
20260505223052 47 272 0.0 0.0 0.00 0.44 0.10 96 1018.1
20260505223009 47 272 0.0 0.0 0.00 0.43 0.10 96 1016.4
20260505221555 47 266 0.0 0.0 0.00 0.44 0.10 96 1018.2
20260505221518 47 266 0.0 0.0 0.00 0.44 0.10 96 1016.5
20260505220051 47 266 0.0 0.0 0.00 0.44 0.10 96 1018.1
20260505220018 47 265 0.0 0.0 0.00 0.44 0.10 96 1016.4
20260505214609 47 265 0.0 0.0 0.00 0.47 0.10 96 1018.2
20260505214514 47 265 0.0 0.0 0.00 0.45 0.10 95 1016.4
20260505213051 47 281 0.0 2.0 0.00 0.47 0.10 96 1018.3
20260505213013 47 281 0.0 2.0 0.00 0.46 0.10 95 1016.5
20260505211550 47 269 0.0 1.0 0.00 0.47 0.10 96 1018.2
20260505211508 47 270 0.0 1.0 0.00 0.47 0.10 95 1016.5
20260505210048 47 269 0.0 1.0 0.00 0.47 0.10 96 1018.2
20260505210008 47 269 0.0 2.0 0.00 0.47 0.10 95 1016.4
20260505204549 47 269 1.0 4.0 0.00 0.48 0.10 95 1018.2
20260505204527 47 269 1.0 4.0 0.00 0.47 0.10 95 1016.4
20260505203048 47 269 0.0 4.0 0.00 0.48 0.10 95 1018.2
20260505203023 47 269 0.0 4.0 0.00 0.47 0.10 95 1016.3
20260505201552 47 284 0.0 1.0 0.00 0.48 0.10 95 1018.0
20260505201514 47 284 0.0 1.0 0.00 0.47 0.10 95 1016.2
20260505200045 47 284 0.0 2.0 0.00 0.48 0.10 95 1018.0
20260505200021 47 284 0.0 2.0 0.00 0.48 0.10 95 1016.2
20260505194544 47 284 1.0 3.0 0.00 0.54 0.10 95 1018.1
20260505194510 47 284 0.0 3.0 0.00 0.50 0.10 95 1016.2
20260505193042 47 284 0.0 3.0 0.00 0.54 0.10 95 1018.2
20260505193026 47 284 1.0 3.0 0.00 0.52 0.10 95 1016.2
20260505191550 46 284 1.0 3.0 0.00 0.54 0.10 95 1018.2
20260505191524 46 284 1.0 3.0 0.00 0.52 0.10 95 1016.2
20260505190050 47 271 2.0 4.0 0.00 0.54 0.10 96 1018.2
20260505190022 47 271 2.0 4.0 0.00 0.54 0.10 95 1016.1
20260505184543 46 255 0.0 2.0 0.00 0.62 0.10 96 1018.1
20260505184525 46 255 0.0 2.0 0.00 0.58 0.10 95 1016.0
20260505183057 46 255 1.0 3.0 0.00 0.62 0.10 96 1018.1
20260505183037 46 255 1.0 3.0 0.00 0.61 0.10 95 1016.1
20260505181537 46 190 0.0 0.0 0.00 0.62 0.10 96 1018.0
20260505181512 46 190 0.0 0.0 0.00 0.62 0.10 96 1015.9
20260505180037 46 190 0.0 0.0 0.00 0.62 0.10 96 1017.9
20260505180024 46 190 0.0 0.0 0.00 0.62 0.10 96 1015.8
20260505174536 46 190 0.0 0.0 0.00 0.64 0.10 96 1017.7
20260505174524 46 190 0.0 0.0 0.00 0.63 0.10 96 1015.8
20260505173042 46 190 0.0 0.0 0.00 0.64 0.10 96 1017.6
20260505173023 46 190 0.0 0.0 0.00 0.63 0.10 96 1015.7
20260505171543 45 190 0.0 0.0 0.00 0.64 0.10 96 1017.6
20260505171505 45 190 0.0 0.0 0.00 0.64 0.10 96 1015.6
20260505170031 45 190 0.0 0.0 0.00 0.64 0.10 96 1017.6
20260505170018 45 190 0.0 0.0 0.00 0.64 0.10 96 1015.6
20260505164530 45 190 0.0 0.0 0.00 0.76 0.10 96 1017.5
20260505164517 45 190 0.0 0.0 0.00 0.64 0.10 96 1015.6
20260505163029 45 190 0.0 0.0 0.00 0.76 0.10 96 1017.4
20260505163010 45 190 0.0 0.0 0.00 0.67 0.10 96 1015.5
20260505161529 45 190 0.0 0.0 0.00 0.76 0.10 96 1017.6
20260505161506 45 190 0.0 0.0 0.00 0.71 0.10 96 1015.4
20260505153026 44 190 0.0 0.0 0.00 0.79 0.10 96 1017.2
20260505153018 44 190 0.0 0.0 0.00 0.79 0.10 96 1015.2
20260505151532 44 190 0.0 0.0 0.00 0.79 0.10 96 1017.1
20260505151517 44 190 0.0 0.0 0.00 0.79 0.10 96 1015.1
20260505124524 42 19 0.0 0.0 0.00 0.79 0.10 96 1014.5
20260505124511 42 19 0.0 0.0 0.00 0.79 0.10 96 1016.6
20260505123023 42 19 0.0 0.0 0.00 0.79 0.10 96 1014.6
20260505123010 42 19 0.0 0.0 0.00 0.79 0.10 96 1016.6
20260505121524 42 19 0.0 0.0 0.00 0.79 0.10 96 1014.3
20260505121511 42 19 0.0 0.0 0.00 0.79 0.10 96 1016.2
20260505120033 42 19 0.0 0.0 0.00 0.79 0.10 96 1016.4
20260505120018 42 19 0.0 0.0 0.00 0.79 0.10 96 1014.4
20260505114512 42 19 0.0 0.0 0.00 0.79 0.10 95 1014.5
20260505114510 42 19 0.0 0.0 0.00 0.79 0.10 96 1016.4
20260505113008 42 19 0.0 0.0 0.00 0.79 0.10 96 1016.4
20260505111525 42 19 0.0 0.0 0.00 0.79 0.10 95 1014.5
20260505111507 42 19 0.0 0.0 0.00 0.79 0.10 96 1016.4
20260505101521 43 19 0.0 0.0 0.01 0.79 0.10 95 1014.6
20260505101504 43 19 0.0 0.0 0.01 0.79 0.10 96 1016.4
20260505100100 43 19 0.0 0.0 0.02 0.79 0.10 96 1016.7
20260505100012 43 19 0.0 0.0 0.02 0.79 0.10 96 1014.9
20260505094559 43 19 0.0 0.0 0.05 0.79 0.10 96 1016.5
20260505094530 43 19 0.0 0.0 0.05 0.79 0.10 96 1014.8
20260505093058 43 19 0.0 0.0 0.06 0.78 0.09 96 1017.0
20260505093024 43 19 0.0 0.0 0.06 0.78 0.09 96 1015.2
20260505091603 43 19 0.0 0.0 0.08 0.78 0.09 96 1016.9
20260505091522 43 19 0.0 0.0 0.08 0.78 0.09 96 1015.2
20260505090056 43 19 0.0 0.0 0.08 0.77 0.08 96 1016.9
20260505090021 43 19 0.0 0.0 0.08 0.77 0.08 96 1015.1
20260505084555 43 19 0.0 0.0 0.05 0.74 0.05 96 1017.1
20260505084522 43 19 0.0 0.0 0.05 0.74 0.05 96 1015.4
20260505083054 43 19 0.0 0.0 0.03 0.72 0.03 96 1016.8
20260505083029 43 19 0.0 0.0 0.03 0.72 0.03 96 1015.1
20260505081553 43 19 0.0 0.0 0.01 0.70 0.01 96 1017.1
20260505081508 43 19 0.0 0.0 0.01 0.70 0.01 95 1015.4